| time (UTC) | temp C | wind direction | speed KPH | gust KPH | rain 1hr cm | rain 24hr cm | rain mn cm | humidity % | barometer mb |
| 20260507160204 | 12 | 62 | 1.6 | 4.8 | 0.00 | 0.05 | 0.05 | 80 | 1010.2 |
| 20260507155704 | 12 | 344 | 0.0 | 4.8 | 0.00 | 0.05 | 0.05 | 81 | 1010.2 |
| 20260507155204 | 12 | 337 | 0.0 | 0.0 | 0.00 | 0.05 | 0.05 | 82 | 1010.3 |
| 20260507154704 | 12 | 36 | 0.0 | 4.8 | 0.00 | 0.05 | 0.05 | 81 | 1009.8 |
| 20260507153705 | 12 | 263 | 0.0 | 3.2 | 0.00 | 0.05 | 0.05 | 82 | 1009.8 |
| 20260507153205 | 12 | 11 | 0.0 | 4.8 | 0.00 | 0.05 | 0.05 | 82 | 1009.8 |
| 20260507152205 | 12 | 26 | 0.0 | 0.0 | 0.00 | 0.05 | 0.05 | 80 | 1009.8 |
| 20260507151705 | 12 | 348 | 1.6 | 3.2 | 0.00 | 0.05 | 0.05 | 79 | 1009.8 |
| 20260507151204 | 12 | 271 | 0.0 | 1.6 | 0.00 | 0.05 | 0.05 | 79 | 1009.8 |
| 20260507150704 | 12 | 32 | 0.0 | 0.0 | 0.00 | 0.05 | 0.05 | 81 | 1009.8 |
| 20260507150205 | 12 | 30 | 0.0 | 0.0 | 0.00 | 0.05 | 0.05 | 81 | 1009.8 |
| 20260507145704 | 12 | 22 | 0.0 | 0.0 | 0.00 | 0.08 | 0.05 | 81 | 1009.8 |
| 20260507145204 | 12 | 0 | 1.6 | 4.8 | 0.00 | 0.13 | 0.05 | 80 | 1009.8 |
| 20260507144204 | 13 | 344 | 0.0 | 1.6 | 0.00 | 0.18 | 0.05 | 79 | 1010.0 |
| 20260507143704 | 13 | 65 | 0.0 | 3.2 | 0.00 | 0.20 | 0.05 | 78 | 1010.0 |
| 20260507143205 | 13 | 348 | 1.6 | 4.8 | 0.00 | 0.23 | 0.05 | 78 | 1010.0 |
| 20260507142205 | 13 | 0 | 0.0 | 4.8 | 0.00 | 0.23 | 0.05 | 80 | 1010.2 |
| 20260507141704 | 13 | 351 | 1.6 | 8.0 | 0.00 | 0.25 | 0.05 | 80 | 1010.2 |
| 20260507141204 | 13 | 39 | 0.0 | 4.8 | 0.00 | 0.25 | 0.05 | 81 | 1010.2 |
| 20260507140704 | 13 | 243 | 0.0 | 4.8 | 0.00 | 0.28 | 0.05 | 82 | 1010.2 |
| 20260507140204 | 13 | 359 | 1.6 | 4.8 | 0.00 | 0.28 | 0.05 | 82 | 1010.2 |
| 20260507135704 | 13 | 20 | 1.6 | 4.8 | 0.00 | 0.28 | 0.05 | 82 | 1010.2 |
| 20260507135204 | 13 | 59 | 1.6 | 4.8 | 0.00 | 0.28 | 0.05 | 82 | 1010.2 |
| 20260507134705 | 13 | 304 | 1.6 | 8.0 | 0.00 | 0.28 | 0.05 | 82 | 1009.8 |
| 20260507134204 | 13 | 294 | 0.0 | 11.3 | 0.00 | 0.28 | 0.05 | 83 | 1009.8 |
| 20260507133704 | 13 | 76 | 1.6 | 9.7 | 0.00 | 0.28 | 0.05 | 83 | 1009.8 |
| 20260507133204 | 13 | 339 | 1.6 | 8.0 | 0.00 | 0.28 | 0.05 | 84 | 1009.8 |
| 20260507132705 | 13 | 356 | 0.0 | 4.8 | 0.00 | 0.28 | 0.05 | 84 | 1009.8 |
| 20260507132204 | 13 | 333 | 0.0 | 8.0 | 0.00 | 0.28 | 0.05 | 85 | 1009.8 |
| 20260507131704 | 13 | 334 | 1.6 | 4.8 | 0.00 | 0.28 | 0.05 | 85 | 1009.8 |
| 20260507130705 | 13 | 216 | 0.0 | 3.2 | 0.00 | 0.28 | 0.05 | 86 | 1009.7 |
| 20260507130205 | 13 | 20 | 3.2 | 12.9 | 0.00 | 0.28 | 0.05 | 86 | 1009.5 |
| 20260507125704 | 13 | 32 | 1.6 | 9.7 | 0.00 | 0.28 | 0.05 | 87 | 1009.5 |
| 20260507125205 | 13 | 215 | 0.0 | 4.8 | 0.00 | 0.28 | 0.05 | 88 | 1009.5 |
| 20260507124704 | 13 | 234 | 1.6 | 9.7 | 0.00 | 0.28 | 0.05 | 88 | 1009.5 |
| 20260507124205 | 13 | 58 | 0.0 | 3.2 | 0.00 | 0.28 | 0.05 | 89 | 1009.5 |
| 20260507123704 | 13 | 18 | 1.6 | 8.0 | 0.00 | 0.28 | 0.05 | 91 | 1009.5 |
| 20260507123204 | 13 | 23 | 0.0 | 1.6 | 0.00 | 0.28 | 0.05 | 92 | 1009.5 |
| 20260507122705 | 13 | 342 | 0.0 | 4.8 | 0.00 | 0.28 | 0.05 | 93 | 1009.5 |
| 20260507122205 | 13 | 11 | 0.0 | 3.2 | 0.00 | 0.28 | 0.05 | 94 | 1009.3 |
| 20260507121204 | 13 | 52 | 0.0 | 3.2 | 0.00 | 0.28 | 0.05 | 94 | 1009.3 |
| 20260507120704 | 13 | 31 | 0.0 | 0.0 | 0.00 | 0.28 | 0.05 | 94 | 1009.3 |
| 20260507120204 | 13 | 38 | 0.0 | 4.8 | 0.00 | 0.28 | 0.05 | 94 | 1009.3 |
| 20260507115704 | 13 | 9 | 0.0 | 0.0 | 0.00 | 0.28 | 0.05 | 94 | 1009.3 |
| 20260507115204 | 13 | 255 | 0.0 | 0.0 | 0.00 | 0.28 | 0.05 | 94 | 1009.3 |
| 20260507114704 | 13 | 255 | 0.0 | 4.8 | 0.00 | 0.28 | 0.05 | 94 | 1009.3 |
| 20260507114205 | 13 | 350 | 0.0 | 3.2 | 0.00 | 0.28 | 0.05 | 94 | 1009.3 |
| 20260507113704 | 13 | 61 | 0.0 | 1.6 | 0.00 | 0.28 | 0.05 | 94 | 1009.3 |
| 20260507113204 | 13 | 310 | 1.6 | 4.8 | 0.00 | 0.28 | 0.05 | 94 | 1009.3 |
| 20260507112204 | 13 | 354 | 0.0 | 0.0 | 0.00 | 0.28 | 0.05 | 94 | 1009.2 |
| 20260507111704 | 12 | 13 | 0.0 | 0.0 | 0.00 | 0.28 | 0.05 | 94 | 1008.7 |
| 20260507111204 | 12 | 10 | 0.0 | 0.0 | 0.00 | 0.28 | 0.05 | 94 | 1008.7 |
| 20260507110704 | 12 | 334 | 0.0 | 0.0 | 0.00 | 0.28 | 0.05 | 94 | 1008.7 |
| 20260507110204 | 12 | 349 | 0.0 | 0.0 | 0.03 | 0.28 | 0.05 | 94 | 1008.7 |
| 20260507105704 | 12 | 355 | 0.0 | 0.0 | 0.03 | 0.28 | 0.05 | 94 | 1008.7 |
| 20260507105205 | 12 | 355 | 0.0 | 0.0 | 0.03 | 0.28 | 0.05 | 94 | 1008.7 |
| 20260507104704 | 12 | 340 | 0.0 | 1.6 | 0.03 | 0.28 | 0.05 | 94 | 1008.7 |
| 20260507104204 | 13 | 327 | 0.0 | 4.8 | 0.03 | 0.28 | 0.05 | 94 | 1008.7 |
| 20260507103704 | 13 | 33 | 0.0 | 4.8 | 0.03 | 0.28 | 0.05 | 95 | 1008.7 |
| 20260507103204 | 13 | 261 | 0.0 | 0.0 | 0.03 | 0.28 | 0.05 | 95 | 1008.7 |
| 20260507101704 | 13 | 66 | 0.0 | 0.0 | 0.05 | 0.28 | 0.05 | 94 | 1008.7 |
| 20260507100704 | 13 | 16 | 0.0 | 0.0 | 0.05 | 0.28 | 0.05 | 94 | 1008.7 |
| 20260507100204 | 13 | 315 | 0.0 | 3.2 | 0.03 | 0.25 | 0.03 | 94 | 1008.7 |
| 20260507095704 | 13 | 33 | 1.6 | 12.9 | 0.03 | 0.25 | 0.03 | 94 | 1008.7 |
| 20260507095204 | 13 | 17 | 0.0 | 8.0 | 0.03 | 0.25 | 0.03 | 94 | 1008.7 |
| 20260507094704 | 13 | 0 | 0.0 | 1.6 | 0.03 | 0.25 | 0.03 | 94 | 1008.7 |
| 20260507093204 | 13 | 262 | 0.0 | 4.8 | 0.03 | 0.25 | 0.03 | 93 | 1008.7 |
| 20260507092704 | 13 | 53 | 0.0 | 3.2 | 0.03 | 0.25 | 0.03 | 94 | 1008.7 |
| 20260507092204 | 14 | 4 | 1.6 | 4.8 | 0.03 | 0.25 | 0.03 | 93 | 1008.7 |
| 20260507091704 | 14 | 28 | 0.0 | 4.8 | 0.00 | 0.23 | 0.00 | 93 | 1008.7 |
| 20260507091204 | 14 | 310 | 1.6 | 12.9 | 0.00 | 0.23 | 0.00 | 93 | 1008.7 |
| 20260507090704 | 14 | 32 | 0.0 | 0.0 | 0.00 | 0.23 | 0.00 | 93 | 1008.7 |
| 20260507090204 | 14 | 313 | 0.0 | 4.8 | 0.00 | 0.23 | 0.00 | 92 | 1008.7 |
| 20260507085704 | 15 | 249 | 1.6 | 8.0 | 0.00 | 0.23 | 0.00 | 92 | 1008.7 |
| 20260507084704 | 15 | 259 | 0.0 | 4.8 | 0.00 | 0.23 | 0.00 | 92 | 1008.0 |
| 20260507084204 | 15 | 85 | 1.6 | 11.3 | 0.00 | 0.23 | 0.00 | 92 | 1008.0 |
| 20260507083704 | 15 | 182 | 0.0 | 8.0 | 0.00 | 0.23 | 0.00 | 91 | 1008.0 |
| 20260507083204 | 15 | 332 | 0.0 | 9.7 | 0.00 | 0.23 | 0.00 | 91 | 1008.0 |
| 20260507082704 | 16 | 16 | 1.6 | 4.8 | 0.00 | 0.23 | 0.00 | 91 | 1008.0 |
| 20260507082204 | 16 | 285 | 1.6 | 8.0 | 0.00 | 0.23 | 0.00 | 91 | 1008.0 |
| 20260507081704 | 16 | 47 | 1.6 | 11.3 | 0.00 | 0.23 | 0.00 | 90 | 1008.0 |
| 20260507081203 | 17 | 249 | 1.6 | 9.7 | 0.00 | 0.23 | 0.00 | 90 | 1007.4 |
| 20260507080704 | 18 | 0 | 3.2 | 4.8 | 0.00 | 0.23 | 0.00 | 91 | 1007.4 |
| 20260507075704 | 18 | 224 | 0.0 | 9.7 | 0.00 | 0.23 | 0.00 | 93 | 1007.4 |
| 20260507075204 | 19 | 296 | 1.6 | 8.0 | 0.00 | 0.23 | 0.00 | 93 | 1007.4 |
| 20260507074703 | 19 | 296 | 0.0 | 0.0 | 0.00 | 0.23 | 0.00 | 93 | 1007.4 |
| 20260507074204 | 19 | 296 | 0.0 | 1.6 | 0.00 | 0.23 | 0.00 | 93 | 1007.4 |
| 20260507073704 | 18 | 296 | 0.0 | 1.6 | 0.00 | 0.23 | 0.00 | 93 | 1007.4 |
| 20260507072704 | 18 | 296 | 0.0 | 0.0 | 0.00 | 0.23 | 0.00 | 92 | 1008.0 |
| 20260507072204 | 19 | 296 | 0.0 | 0.0 | 0.00 | 0.23 | 0.00 | 92 | 1008.0 |
| 20260507071204 | 19 | 296 | 0.0 | 0.0 | 0.00 | 0.23 | 0.00 | 92 | 1008.0 |
| 20260507070704 | 19 | 296 | 0.0 | 0.0 | 0.00 | 0.23 | 0.00 | 91 | 1008.0 |
| 20260507065703 | 19 | 296 | 0.0 | 0.0 | 0.00 | 0.23 | 0.00 | 91 | 1008.0 |
| 20260507065204 | 19 | 296 | 0.0 | 0.0 | 0.00 | 0.23 | 0.00 | 91 | 1008.0 |
| 20260507064704 | 19 | 296 | 0.0 | 0.0 | 0.00 | 0.23 | 0.00 | 91 | 1008.0 |
| 20260507064204 | 20 | 296 | 0.0 | 0.0 | 0.00 | 0.23 | 0.00 | 91 | 1008.0 |
| 20260507063704 | 20 | 296 | 0.0 | 0.0 | 0.00 | 0.23 | 0.00 | 90 | 1008.0 |
| 20260507062704 | 20 | 296 | 0.0 | 1.6 | 0.00 | 0.23 | 0.00 | 90 | 1008.0 |
| 20260507062204 | 19 | 296 | 0.0 | 0.0 | 0.00 | 0.23 | 0.00 | 91 | 1008.0 |
| 20260507061204 | 19 | 296 | 0.0 | 0.0 | 0.00 | 0.23 | 0.00 | 91 | 1008.0 |
| 20260507055704 | 19 | 296 | 0.0 | 0.0 | 0.00 | 0.23 | 0.00 | 91 | 1008.0 |
| 20260507055204 | 19 | 296 | 0.0 | 0.0 | 0.00 | 0.23 | 0.00 | 91 | 1008.0 |
| 20260507054704 | 19 | 296 | 0.0 | 0.0 | 0.00 | 0.23 | 0.00 | 90 | 1008.0 |
| 20260507054203 | 20 | 296 | 0.0 | 0.0 | 0.00 | 0.23 | 0.00 | 90 | 1008.0 |
| 20260507052703 | 19 | 296 | 0.0 | 1.6 | 0.00 | 0.23 | 0.00 | 90 | 1008.0 |
| 20260507052204 | 19 | 305 | 0.0 | 4.8 | 0.00 | 0.23 | 0.00 | 90 | 1008.0 |
| 20260507051704 | 19 | 275 | 0.0 | 0.0 | 0.00 | 0.23 | 0.00 | 91 | 1008.0 |
| 20260507051203 | 19 | 275 | 0.0 | 3.2 | 0.00 | 0.23 | 0.00 | 91 | 1008.0 |
| 20260507050703 | 19 | 275 | 0.0 | 0.0 | 0.00 | 0.23 | 0.00 | 91 | 1008.0 |
| 20260507050203 | 19 | 275 | 0.0 | 0.0 | 0.00 | 0.23 | 0.00 | 91 | 1008.0 |
| 20260507045703 | 19 | 275 | 0.0 | 0.0 | 0.00 | 0.23 | 0.00 | 91 | 1008.0 |
| 20260507045204 | 19 | 275 | 0.0 | 1.6 | 0.00 | 0.23 | 0.00 | 91 | 1008.0 |
| 20260507044704 | 19 | 275 | 0.0 | 0.0 | 0.00 | 0.23 | 0.00 | 91 | 1008.0 |
| 20260507044204 | 19 | 275 | 0.0 | 0.0 | 0.00 | 0.23 | 0.00 | 91 | 1008.0 |
| 20260507043703 | 19 | 275 | 0.0 | 0.0 | 0.00 | 0.23 | 0.00 | 91 | 1008.0 |
| 20260507043203 | 19 | 275 | 0.0 | 0.0 | 0.00 | 0.23 | 0.00 | 90 | 1008.0 |
| 20260507042703 | 19 | 275 | 0.0 | 0.0 | 0.00 | 0.23 | 0.00 | 91 | 1008.0 |
| 20260507042204 | 19 | 275 | 0.0 | 0.0 | 0.00 | 0.23 | 0.00 | 90 | 1008.0 |
| 20260507041704 | 19 | 275 | 0.0 | 0.0 | 0.00 | 0.23 | 0.00 | 90 | 1008.0 |
| 20260507041204 | 19 | 275 | 0.0 | 0.0 | 0.00 | 0.23 | 0.00 | 90 | 1008.0 |
| 20260507040204 | 19 | 275 | 0.0 | 0.0 | 0.00 | 0.23 | 0.00 | 91 | 1008.0 |
| 20260507035704 | 19 | 275 | 0.0 | 0.0 | 0.00 | 0.23 | 0.23 | 91 | 1008.0 |
| 20260507034704 | 19 | 275 | 0.0 | 0.0 | 0.00 | 0.23 | 0.23 | 91 | 1007.4 |
| 20260507034203 | 19 | 275 | 0.0 | 0.0 | 0.00 | 0.23 | 0.23 | 91 | 1007.4 |
| 20260507033703 | 19 | 275 | 0.0 | 0.0 | 0.00 | 0.23 | 0.23 | 92 | 1007.4 |
| 20260507032703 | 19 | 275 | 0.0 | 0.0 | 0.00 | 0.23 | 0.23 | 92 | 1007.4 |
| 20260507032204 | 19 | 275 | 0.0 | 0.0 | 0.00 | 0.23 | 0.23 | 92 | 1007.4 |
| 20260507031704 | 18 | 275 | 0.0 | 0.0 | 0.00 | 0.23 | 0.23 | 93 | 1007.4 |
| 20260507031203 | 18 | 275 | 0.0 | 0.0 | 0.00 | 0.23 | 0.23 | 93 | 1007.4 |
| 20260507030703 | 18 | 275 | 0.0 | 0.0 | 0.00 | 0.23 | 0.23 | 93 | 1007.4 |
| 20260507030203 | 18 | 275 | 0.0 | 0.0 | 0.00 | 0.23 | 0.23 | 93 | 1007.4 |
| 20260507025204 | 18 | 275 | 0.0 | 0.0 | 0.00 | 0.23 | 0.23 | 93 | 1007.4 |
| 20260507023703 | 18 | 275 | 0.0 | 0.0 | 0.00 | 0.23 | 0.23 | 93 | 1007.9 |
| 20260507023203 | 18 | 275 | 0.0 | 0.0 | 0.00 | 0.23 | 0.23 | 93 | 1007.9 |
| 20260507022704 | 18 | 275 | 0.0 | 0.0 | 0.00 | 0.23 | 0.23 | 93 | 1007.9 |
| 20260507022203 | 18 | 275 | 0.0 | 0.0 | 0.00 | 0.23 | 0.23 | 93 | 1007.9 |
| 20260507021703 | 18 | 275 | 0.0 | 0.0 | 0.00 | 0.23 | 0.23 | 93 | 1007.9 |
| 20260507021204 | 18 | 275 | 0.0 | 0.0 | 0.00 | 0.23 | 0.23 | 93 | 1007.9 |
| 20260507020704 | 18 | 275 | 0.0 | 0.0 | 0.00 | 0.23 | 0.23 | 93 | 1007.9 |
| 20260507020204 | 18 | 275 | 0.0 | 3.2 | 0.00 | 0.23 | 0.23 | 93 | 1007.9 |
| 20260507015704 | 18 | 275 | 0.0 | 0.0 | 0.00 | 0.23 | 0.23 | 93 | 1007.9 |
| 20260507015203 | 18 | 275 | 0.0 | 0.0 | 0.00 | 0.23 | 0.23 | 92 | 1007.9 |
| 20260507014703 | 18 | 275 | 0.0 | 0.0 | 0.00 | 0.23 | 0.23 | 92 | 1007.9 |
| 20260507013704 | 18 | 275 | 0.0 | 0.0 | 0.00 | 0.23 | 0.23 | 92 | 1007.9 |
| 20260507013204 | 18 | 275 | 0.0 | 0.0 | 0.00 | 0.23 | 0.23 | 92 | 1007.9 |
| 20260507012704 | 18 | 275 | 0.0 | 0.0 | 0.00 | 0.23 | 0.23 | 91 | 1007.8 |
| 20260507012203 | 18 | 275 | 0.0 | 0.0 | 0.00 | 0.23 | 0.23 | 91 | 1007.8 |
| 20260507011703 | 18 | 275 | 0.0 | 0.0 | 0.00 | 0.23 | 0.23 | 91 | 1007.8 |
| 20260507010203 | 19 | 275 | 0.0 | 0.0 | 0.00 | 0.23 | 0.23 | 89 | 1007.8 |
| 20260507005703 | 19 | 275 | 0.0 | 0.0 | 0.00 | 0.23 | 0.23 | 89 | 1007.8 |
| 20260507005203 | 19 | 275 | 0.0 | 0.0 | 0.00 | 0.23 | 0.23 | 89 | 1007.8 |
| 20260507004703 | 19 | 275 | 0.0 | 0.0 | 0.00 | 0.23 | 0.23 | 88 | 1007.8 |
| 20260507004204 | 19 | 275 | 0.0 | 0.0 | 0.00 | 0.23 | 0.23 | 88 | 1007.8 |
| 20260507002703 | 20 | 275 | 0.0 | 0.0 | 0.00 | 0.23 | 0.23 | 87 | 1007.8 |
| 20260507002205 | 20 | 275 | 0.0 | 0.0 | 0.00 | 0.23 | 0.23 | 87 | 1007.8 |
| 20260507001705 | 20 | 275 | 0.0 | 0.0 | 0.00 | 0.23 | 0.23 | 87 | 1007.8 |
| 20260507001205 | 20 | 275 | 0.0 | 0.0 | 0.00 | 0.23 | 0.23 | 87 | 1007.8 |
| 20260507000705 | 20 | 275 | 0.0 | 0.0 | 0.00 | 0.23 | 0.23 | 86 | 1007.8 |
| 20260507000205 | 20 | 275 | 0.0 | 0.0 | 0.00 | 0.23 | 0.23 | 86 | 1007.8 |
| 20260506235705 | 20 | 275 | 0.0 | 0.0 | 0.00 | 0.23 | 0.23 | 85 | 1007.4 |
| 20260506235205 | 20 | 275 | 0.0 | 0.0 | 0.00 | 0.23 | 0.23 | 84 | 1007.4 |
| 20260506234705 | 20 | 275 | 0.0 | 0.0 | 0.00 | 0.23 | 0.23 | 84 | 1007.4 |
| 20260506234205 | 20 | 275 | 0.0 | 0.0 | 0.00 | 0.23 | 0.23 | 84 | 1007.4 |
| 20260506233205 | 20 | 275 | 0.0 | 0.0 | 0.00 | 0.23 | 0.23 | 83 | 1007.4 |
| 20260506232705 | 21 | 275 | 0.0 | 0.0 | 0.00 | 0.23 | 0.23 | 83 | 1007.4 |
| 20260506231705 | 21 | 202 | 0.0 | 0.0 | 0.00 | 0.23 | 0.23 | 82 | 1007.4 |
| 20260506231205 | 21 | 202 | 0.0 | 0.0 | 0.00 | 0.23 | 0.23 | 81 | 1007.4 |
| 20260506230704 | 21 | 202 | 0.0 | 0.0 | 0.00 | 0.23 | 0.23 | 81 | 1007.4 |
| 20260506230205 | 21 | 202 | 0.0 | 3.2 | 0.00 | 0.23 | 0.23 | 82 | 1007.4 |
| 20260506225705 | 21 | 200 | 0.0 | 0.0 | 0.00 | 0.23 | 0.23 | 82 | 1007.4 |
| 20260506224705 | 21 | 175 | 0.0 | 0.0 | 0.00 | 0.23 | 0.23 | 82 | 1007.6 |
| 20260506223205 | 21 | 153 | 0.0 | 8.0 | 0.00 | 0.23 | 0.23 | 81 | 1007.8 |
| 20260506222705 | 21 | 246 | 0.0 | 3.2 | 0.00 | 0.23 | 0.23 | 80 | 1007.8 |
| 20260506222204 | 21 | 249 | 0.0 | 3.2 | 0.00 | 0.23 | 0.23 | 81 | 1007.8 |
| 20260506221705 | 21 | 321 | 0.0 | 1.6 | 0.00 | 0.23 | 0.23 | 80 | 1007.8 |
| 20260506221205 | 21 | 302 | 0.0 | 0.0 | 0.00 | 0.23 | 0.23 | 81 | 1007.8 |
| 20260506220705 | 21 | 284 | 0.0 | 3.2 | 0.00 | 0.23 | 0.23 | 81 | 1007.8 |
| 20260506220205 | 21 | 216 | 0.0 | 1.6 | 0.00 | 0.23 | 0.23 | 81 | 1007.8 |
| 20260506215205 | 21 | 217 | 0.0 | 3.2 | 0.00 | 0.23 | 0.23 | 81 | 1007.8 |
| 20260506214204 | 21 | 209 | 0.0 | 4.8 | 0.00 | 0.23 | 0.23 | 81 | 1007.8 |
| 20260506213205 | 21 | 248 | 0.0 | 4.8 | 0.00 | 0.23 | 0.23 | 81 | 1007.8 |
| 20260506212705 | 21 | 291 | 0.0 | 0.0 | 0.00 | 0.23 | 0.23 | 82 | 1007.8 |
| 20260506212204 | 21 | 257 | 0.0 | 3.2 | 0.00 | 0.23 | 0.23 | 83 | 1007.8 |
| 20260506211705 | 21 | 342 | 1.6 | 4.8 | 0.00 | 0.23 | 0.23 | 84 | 1007.7 |
| 20260506211205 | 21 | 1 | 0.0 | 3.2 | 0.00 | 0.23 | 0.23 | 84 | 1007.7 |
| 20260506210705 | 21 | 208 | 0.0 | 1.6 | 0.00 | 0.23 | 0.23 | 84 | 1007.7 |
| 20260506210204 | 21 | 155 | 0.0 | 0.0 | 0.00 | 0.23 | 0.23 | 85 | 1007.7 |
| 20260506205205 | 20 | 213 | 0.0 | 1.6 | 0.00 | 0.23 | 0.23 | 87 | 1007.7 |
| 20260506204705 | 20 | 96 | 0.0 | 0.0 | 0.00 | 0.23 | 0.23 | 87 | 1007.7 |
| 20260506204205 | 20 | 96 | 0.0 | 4.8 | 0.00 | 0.23 | 0.23 | 88 | 1007.7 |
| 20260506203204 | 20 | 154 | 0.0 | 0.0 | 0.00 | 0.23 | 0.23 | 88 | 1007.7 |
| 20260506202704 | 20 | 154 | 0.0 | 0.0 | 0.00 | 0.23 | 0.23 | 89 | 1007.7 |
| 20260506202205 | 20 | 154 | 0.0 | 0.0 | 0.00 | 0.23 | 0.23 | 89 | 1007.8 |
| 20260506201705 | 20 | 154 | 0.0 | 0.0 | 0.00 | 0.23 | 0.23 | 89 | 1007.1 |
| 20260506201205 | 20 | 154 | 0.0 | 0.0 | 0.00 | 0.23 | 0.23 | 89 | 1007.1 |
| 20260506200205 | 20 | 154 | 1.6 | 4.8 | 0.00 | 0.23 | 0.23 | 90 | 1007.1 |
| 20260506195705 | 19 | 231 | 0.0 | 1.6 | 0.00 | 0.23 | 0.23 | 90 | 1007.1 |
| 20260506194705 | 19 | 65 | 0.0 | 1.6 | 0.00 | 0.23 | 0.23 | 91 | 1007.1 |
| 20260506194204 | 19 | 66 | 0.0 | 0.0 | 0.00 | 0.23 | 0.23 | 91 | 1007.2 |
| 20260506193704 | 18 | 66 | 0.0 | 0.0 | 0.00 | 0.23 | 0.23 | 91 | 1007.4 |
| 20260506192705 | 18 | 66 | 0.0 | 0.0 | 0.00 | 0.23 | 0.23 | 93 | 1007.6 |
| 20260506192205 | 18 | 78 | 0.0 | 0.0 | 0.00 | 0.23 | 0.23 | 93 | 1009.0 |
| 20260506191704 | 18 | 232 | 0.0 | 1.6 | 0.00 | 0.23 | 0.23 | 93 | 1009.0 |
| 20260506191205 | 18 | 230 | 0.0 | 0.0 | 0.00 | 0.23 | 0.23 | 93 | 1009.0 |
| 20260506190705 | 18 | 342 | 0.0 | 0.0 | 0.00 | 0.23 | 0.23 | 93 | 1009.0 |
| 20260506190204 | 18 | 87 | 0.0 | 3.2 | 0.00 | 0.23 | 0.23 | 93 | 1009.0 |
| 20260506185704 | 18 | 47 | 0.0 | 1.6 | 0.00 | 0.23 | 0.23 | 93 | 1009.0 |
| 20260506185205 | 18 | 19 | 0.0 | 0.0 | 0.00 | 0.23 | 0.23 | 92 | 1009.0 |
| 20260506184704 | 18 | 297 | 0.0 | 3.2 | 0.00 | 0.23 | 0.23 | 92 | 1009.0 |
| 20260506184205 | 18 | 244 | 0.0 | 0.0 | 0.00 | 0.23 | 0.23 | 92 | 1009.0 |
| 20260506183705 | 18 | 230 | 0.0 | 0.0 | 0.00 | 0.23 | 0.23 | 92 | 1009.0 |
| 20260506183205 | 18 | 230 | 0.0 | 0.0 | 0.00 | 0.23 | 0.23 | 91 | 1009.0 |
| 20260506182205 | 18 | 335 | 0.0 | 0.0 | 0.00 | 0.23 | 0.23 | 91 | 1009.0 |
| 20260506181705 | 18 | 221 | 0.0 | 3.2 | 0.00 | 0.23 | 0.23 | 91 | 1009.0 |
| 20260506181205 | 18 | 171 | 0.0 | 3.2 | 0.00 | 0.23 | 0.23 | 91 | 1009.0 |
| 20260506180705 | 18 | 56 | 0.0 | 8.0 | 0.00 | 0.23 | 0.23 | 91 | 1009.0 |
| 20260506180205 | 18 | 219 | 0.0 | 3.2 | 0.00 | 0.23 | 0.23 | 91 | 1009.0 |
| 20260506175704 | 18 | 229 | 0.0 | 0.0 | 0.00 | 0.23 | 0.23 | 92 | 1009.4 |
| 20260506175205 | 18 | 206 | 0.0 | 1.6 | 0.00 | 0.23 | 0.23 | 91 | 1009.4 |
| 20260506174704 | 18 | 227 | 1.6 | 4.8 | 0.00 | 0.23 | 0.23 | 91 | 1009.4 |
| 20260506173705 | 17 | 232 | 0.0 | 3.2 | 0.00 | 0.23 | 0.23 | 92 | 1009.4 |
| 20260506172704 | 17 | 232 | 0.0 | 0.0 | 0.00 | 0.23 | 0.23 | 92 | 1009.4 |
| 20260506172204 | 17 | 231 | 1.6 | 4.8 | 0.00 | 0.23 | 0.23 | 93 | 1009.4 |
| 20260506171705 | 17 | 223 | 1.6 | 4.8 | 0.00 | 0.23 | 0.23 | 94 | 1009.4 |
| 20260506171204 | 17 | 224 | 1.6 | 4.8 | 0.00 | 0.23 | 0.23 | 93 | 1009.4 |
| 20260506170704 | 17 | 247 | 0.0 | 3.2 | 0.00 | 0.23 | 0.23 | 94 | 1009.4 |
| 20260506170204 | 17 | 247 | 0.0 | 3.2 | 0.00 | 0.23 | 0.23 | 93 | 1009.4 |
| 20260506165705 | 17 | 307 | 0.0 | 0.0 | 0.00 | 0.23 | 0.23 | 94 | 1009.4 |
| 20260506165204 | 17 | 306 | 0.0 | 3.2 | 0.00 | 0.23 | 0.23 | 94 | 1009.4 |
| 20260506164705 | 17 | 291 | 0.0 | 12.9 | 0.00 | 0.23 | 0.23 | 94 | 1009.4 |
| 20260506164204 | 17 | 213 | 0.0 | 3.2 | 0.00 | 0.23 | 0.23 | 94 | 1009.5 |
| 20260506163704 | 17 | 14 | 0.0 | 1.6 | 0.00 | 0.23 | 0.23 | 95 | 1009.5 |
| 20260506163204 | 17 | 331 | 0.0 | 0.0 | 0.00 | 0.23 | 0.23 | 95 | 1009.5 |
| 20260506162704 | 16 | 234 | 0.0 | 4.8 | 0.00 | 0.23 | 0.23 | 95 | 1009.5 |
| 20260506162204 | 16 | 59 | 0.0 | 3.2 | 0.00 | 0.23 | 0.23 | 95 | 1009.4 |
| 20260506161704 | 16 | 173 | 1.6 | 8.0 | 0.00 | 0.23 | 0.23 | 95 | 1009.4 |
| 20260506161205 | 16 | 157 | 1.6 | 4.8 | 0.00 | 0.23 | 0.23 | 95 | 1010.3 |